Location: Newark
(54.6833°N, 25.2833°E)
Time: 16:44:07
(UTC+00:00)

S-56A Canister/Altair - Visible Passes

Search period start: 21 November 2019 00:00
Search period end: 01 December 2019 00:00
Orbit: 634 x 2498 km, 38.9° (Epoch: 20 November)

Date Brightness Start Highest point End Pass type
(mag) Time Alt. Az. Time Alt. Az. Time Alt. Az.
21 Nov 9.8 16:29:01 10° SW 16:35:36 23° S 16:39:26 15° SE visible
21 Nov 10.2 18:34:17 10° WSW 18:36:51 15° SW 18:36:51 15° SW visible
22 Nov 10.0 15:55:39 10° SW 16:02:57 25° S 16:08:23 10° SE visible
22 Nov 9.9 18:00:46 10° WSW 18:05:36 18° SSW 18:05:59 18° SSW visible
23 Nov 10.2 15:22:16 10° SW 15:30:14 26° S 15:36:08 10° SE visible
23 Nov 9.8 17:27:16 10° WSW 17:33:03 20° SSW 17:35:07 18° S visible
24 Nov 10.3 14:48:51 10° SW 14:57:27 27° S 15:03:48 10° ESE visible
24 Nov 9.9 16:53:45 10° WSW 17:00:28 23° SSW 17:04:17 15° SSE visible
25 Nov 10.2 16:20:14 10° WSW 16:27:49 25° SSW 16:33:27 10° SE visible
25 Nov 10.4 18:27:20 10° WSW 18:30:01 12° SW 18:30:55 12° SSW visible
26 Nov 10.3 15:46:41 10° WSW 15:55:07 28° SSW 16:01:17 10° SE visible
26 Nov 10.3 17:53:11 10° WSW 17:57:31 15° SW 18:00:09 12° S visible
27 Nov 10.4 15:13:07 10° WSW 15:22:21 30° S 15:29:04 10° SE visible
27 Nov 10.3 17:19:19 10° WSW 17:24:59 18° SSW 17:29:27 10° S visible
28 Nov 10.5 14:39:33 10° WSW 14:49:31 32° S 14:56:46 10° SE visible
28 Nov 10.4 16:45:33 10° WSW 16:52:23 21° SSW 16:57:41 10° SSE visible
29 Nov 10.5 16:11:48 10° WSW 16:19:43 24° SSW 16:25:43 10° SSE visible
30 Nov 10.6 15:38:05 10° WSW 15:47:00 27° SSW 15:53:38 10° SSE visible
30 Nov 10.9 17:47:24 10° WSW 17:49:01 11° SW 17:50:31 10° SW visible
